Location: *
(2.5500°S, 65.9667°W)
Time: 14:39:05
(UTC+00:00)

Cosmos 2084 - Pass Details

Date: 28 May 2022
Orbit: 506 x 671 km, 62.8° (Epoch: 30 June)

Event Time Altitude Azimuth Distance (km) Brightness Sun altitude
Exits shadow 09:54:01 - 254° (WSW) 1,889 5.4 -7.2°
Reaches altitude 10° 09:54:27 10° 259° (W) 1,788 5.3 -7.1°
Maximum altitude 09:56:38 14° 293° (WNW) 1,511 5.1 -6.6°
Drops below altitude 10° 09:58:46 10° 326° (NW) 1,743 5.8 -6.1°
Sets 10:01:45 0° 352° (N) 2,605 7.0 -5.4°
